Weather History for Ashtabula, OH

Change the Weather History Date:

Wednesday, April 10, 2013

  Actual Average (KYNG) Record (KYNG)
Temperature  
Mean Temperature 47 °F 47 °F  
Max Temperature 57 °F 57 °F 80 °F (1945)
Min Temperature 39 °F 36 °F 16 °F (1997)
Degree Days  
Heating Degree Days 18 19  
Month to date heating degree days 204  
Since 1 July heating degree days 5728  
Cooling Degree Days 0 0  
Month to date cooling degree days 0  
Year to date cooling degree days 1  
Moisture  
Dew Point 43 °F    
Average Humidity 88    
Maximum Humidity 93    
Minimum Humidity 71    
Precipitation  
Precipitation 0.62 in 0.12 in 1.18 in (1990)
Month to date precipitation 1.16  
Year to date precipitation 8.80  
Snow  
Snow 0.00 in 0.10 in - ()
Month to date snowfall 1.7  
Since 1 July snowfall 61.4  
Snow Depth -    
Sea Level Pressure  
Sea Level Pressure 29.91 in    
Wind  
Wind Speed 4 mph (NNE)    
Max Wind Speed 15 mph    
Max Gust Speed 41 mph    
Visibility 5 miles    
Events Rain    
T = Trace of Precipitation, MM = Missing Value Source: NWS Daily Summary

Daily Weather History Graph

Daily Weather History Graph

Search for Another Location

Airport:

Trip Planner

Search our weather history database for the weather conditions in past years. The results will help you decide how hot, cold, wet, or windy it might be!

Date:

Astronomy

Apr. 10, 2013 Rise Set
Actual Time 6:50 AM EDT 7:58 PM EDT
Civil Twilight 6:21 AM EDT 8:27 PM EDT
Nautical Twilight 5:47 AM EDT 9:01 PM EDT
Astronomical Twilight 5:11 AM EDT 9:37 PM EDT
Moon 6:45 AM EDT (4/10) 8:33 PM EDT (4/10)
Length of Visible Light 14h 05m
Length of Day
13h 08m
New Moon, 0% of the Moon is Illuminated
Apr 10
New Moon
Apr 18
First Quarter
Apr 25
Full
May 2
Last Quarter
May 9
New

Hourly Weather History & Observations

Time (EDT) Temp. Windchill Dew Point Humidity Pressure Visibility Wind Dir Wind Speed Gust Speed Precip Events Conditions
12:53 AM 51.1 °F - 42.1 °F 71% 29.92 in 10.0 mi Calm Calm - N/A   Overcast
1:53 AM 50.0 °F - 45.0 °F 83% 29.94 in 9.0 mi North 6.9 mph - 0.05 in   Unknown
2:53 AM 46.0 °F 43.9 °F 42.1 °F 86% 29.96 in 5.0 mi ENE 4.6 mph - 0.04 in Rain Light Rain
3:22 AM 46.4 °F - 42.8 °F 87% 29.96 in 4.0 mi Calm Calm - 0.05 in Rain Light Rain
3:35 AM 46.4 °F - 42.8 °F 87% 29.96 in 2.5 mi Calm Calm - 0.13 in Rain Rain
3:45 AM 46.4 °F - 42.8 °F 87% 29.96 in 4.0 mi Calm Calm - 0.14 in Rain Light Rain
4:29 AM 46.4 °F - 44.6 °F 93% 29.95 in 6.0 mi Calm Calm - 0.14 in   Overcast
4:53 AM 46.9 °F - 44.1 °F 90% 29.94 in 5.0 mi Calm Calm - 0.14 in Rain Light Rain
5:05 AM 46.4 °F - 44.6 °F 93% 29.95 in 6.0 mi Calm Calm - 0.00 in   Overcast
5:53 AM 48.0 °F - 44.1 °F 86% 29.91 in 6.0 mi East 4.6 mph - 0.03 in Rain Light Rain
6:53 AM 48.9 °F - 46.0 °F 90% 29.92 in 5.0 mi Calm Calm - 0.00 in   Overcast
7:53 AM 51.1 °F - 46.9 °F 86% 29.92 in 5.0 mi South 5.8 mph - N/A   Overcast
8:53 AM 53.1 °F - 48.9 °F 86% 29.91 in 6.0 mi Calm Calm - 0.02 in   Overcast
9:53 AM 53.1 °F - 48.9 °F 86% 29.91 in 5.0 mi North 3.5 mph - N/A   Overcast
10:18 AM 51.8 °F - 48.2 °F 88% 29.91 in 5.0 mi North 6.9 mph - N/A   Overcast
10:31 AM 48.2 °F - 46.4 °F 93% 29.91 in 4.0 mi NNE 6.9 mph - N/A   Overcast
10:53 AM 46.0 °F 43.1 °F 43.0 °F 89% 29.94 in 4.0 mi NE 5.8 mph - 0.00 in Rain Light Rain
11:53 AM 50.0 °F - 45.0 °F 83% 29.91 in 10.0 mi Calm Calm - 0.00 in   Overcast
12:31 PM 46.4 °F 42.4 °F 42.8 °F 87% 29.91 in 3.0 mi North 8.1 mph 18.4 mph 0.09 in Rain Light Rain
1:06 PM 46.4 °F - 42.8 °F 87% 29.91 in 7.0 mi Calm Calm - 0.00 in Rain Light Rain
1:13 PM 46.4 °F 44.3 °F 42.8 °F 87% 29.87 in 1.8 mi Variable 4.6 mph - 0.09 in Rain Rain
1:20 PM 46.4 °F 45.2 °F 44.6 °F 93% 29.87 in 2.0 mi North 3.5 mph - 0.10 in Rain Light Rain
1:29 PM 46.4 °F 44.3 °F 44.6 °F 93% 29.86 in 7.0 mi East 4.6 mph - 0.10 in   Mostly Cloudy
1:53 PM 50.0 °F - 46.9 °F 89% 29.88 in 8.0 mi Calm Calm - 0.10 in   Overcast
2:19 PM 51.8 °F - 48.2 °F 88% 29.87 in 10.0 mi Calm Calm - N/A   Overcast
2:53 PM 55.0 °F - 50.0 °F 83% 29.86 in 10.0 mi Calm Calm - N/A   Overcast
3:05 PM 55.4 °F - 51.8 °F 88% 29.85 in 10.0 mi Calm Calm - N/A   Overcast
3:16 PM 51.8 °F - 48.2 °F 88% 29.89 in 2.0 mi North 15.0 mph 41.4 mph N/A   Overcast
3:23 PM 48.2 °F - 44.6 °F 87% 29.87 in 1.5 mi North 10.4 mph 41.4 mph N/A   Overcast
3:31 PM 46.4 °F 41.9 °F 42.8 °F 87% 29.88 in 2.0 mi North 9.2 mph 21.9 mph N/A   Overcast
3:38 PM 44.6 °F 40.2 °F 41.0 °F 87% 29.86 in 2.5 mi NNE 8.1 mph 21.9 mph N/A   Overcast
3:53 PM 44.1 °F 40.1 °F 41.0 °F 89% 29.87 in 2.5 mi ENE 6.9 mph - 0.00 in Rain Light Rain
4:06 PM 44.6 °F 40.7 °F 42.8 °F 93% 29.85 in 3.0 mi East 6.9 mph - 0.01 in Rain Light Rain
4:44 PM 46.4 °F 41.1 °F 42.8 °F 87% 29.88 in 4.0 mi North 11.5 mph 18.4 mph 0.01 in   Overcast
4:51 PM 44.6 °F 40.7 °F 42.8 °F 93% 29.88 in 3.0 mi NNE 6.9 mph 20.7 mph 0.01 in   Overcast
4:53 PM 45.0 °F 40.1 °F 42.1 °F 90% 29.88 in 3.0 mi NNE 9.2 mph 20.7 mph 0.01 in   Overcast
5:22 PM 44.6 °F 40.2 °F 42.8 °F 93% 29.84 in 2.0 mi East 8.1 mph - 0.06 in Rain Rain
5:29 PM 44.6 °F 39.7 °F 42.8 °F 93% 29.83 in 4.0 mi SE 9.2 mph - 0.06 in Rain Light Rain
5:41 PM 46.4 °F 44.3 °F 42.8 °F 87% 29.90 in 2.5 mi NW 4.6 mph - 0.12 in Rain Heavy Rain
5:47 PM 46.4 °F 45.2 °F 42.8 °F 87% 29.87 in 3.0 mi Variable 3.5 mph - 0.13 in Rain Rain
5:53 PM 46.0 °F 43.1 °F 43.0 °F 89% 29.88 in 4.0 mi North 5.8 mph - 0.14 in Rain Light Rain
6:21 PM 46.4 °F 42.9 °F 42.8 °F 87% 29.85 in 5.0 mi Variable 6.9 mph 16.1 mph 0.01 in Rain Light Rain
6:53 PM 42.1 °F 36.1 °F 39.0 °F 89% 29.93 in 9.0 mi North 10.4 mph - 0.02 in   Overcast
7:21 PM 39.2 °F 33.6 °F 37.4 °F 93% 29.92 in 2.0 mi NNE 8.1 mph 17.3 mph N/A   Overcast
7:40 PM 39.2 °F 33.6 °F 37.4 °F 93% 29.93 in 3.0 mi NNE 8.1 mph 19.6 mph N/A   Overcast
7:53 PM 39.9 °F 35.8 °F 37.0 °F 89% 29.95 in 5.0 mi Variable 5.8 mph - N/A   Overcast
8:35 PM 41.0 °F 36.4 °F 37.4 °F 87% 29.98 in 10.0 mi NE 6.9 mph - 0.00 in Rain Light Rain
8:53 PM 39.9 °F 37.8 °F 37.0 °F 89% 30.00 in 7.0 mi Variable 3.5 mph - 0.01 in Rain Light Rain
9:53 PM 41.0 °F 35.2 °F 37.0 °F 86% 29.95 in 10.0 mi NNE 9.2 mph 16.1 mph 0.06 in Rain Light Rain
10:29 PM 41.0 °F 37.1 °F 37.4 °F 87% 29.92 in 10.0 mi ENE 5.8 mph - 0.00 in   Overcast
10:53 PM 41.0 °F 38.0 °F 37.9 °F 89% 29.92 in 10.0 mi ENE 4.6 mph - 0.00 in   Overcast
11:34 PM 41.0 °F 39.0 °F 37.4 °F 87% 29.90 in 9.0 mi NNE 3.5 mph - N/A   Overcast
11:53 PM 41.0 °F 38.0 °F 37.0 °F 86% 29.92 in 7.0 mi North 4.6 mph - N/A   Overcast